Location: ????
(30.1475°N, 31.1342°E)
Time: 08:15:37
(UTC+00:00)

COSMOS 2406 - Pass Details

Date: 27 September 2022
Orbit: 843 x 863 km, 71.0° (Epoch: 28 November)

Event Time Altitude Azimuth Distance (km) Brightness Sun altitude
Exits shadow 02:43:03 13° 225° (SW) 2,243 5.0 -14.5°
Maximum altitude 02:47:45 43° 293° (WNW) 1,177 3.6 -13.5°
Drops below altitude 10° 02:53:06 10° 4° (N) 2,465 5.8 -12.3°
Sets 02:55:41 0° 12° (NNE) 3,402 6.6 -11.8°
